ENY2235 KSTL-KORD

Flight info

Callsign ENY2235
Flight time 0h 54m
Altitude 31000
Route KSHEE5 LEBOY CASHN TRTLL6
Aircraft E75L/M-SDE3GILORVW/S

Departure

Time 2026-05-04 18:57
Airport St. Louis Lambert International Airport (KSTL)

Arrival

Time 2026-05-04 19:51
Airport Chicago O'Hare International Airport (KORD)
Time Latitude Longitude Altitude Speed Heading
2026-05-04 18:39 38.74554 -90.36824 557 ft 0 kts 204°
2026-05-04 18:48 38.74567 -90.36816 557 ft 2 kts 207°
2026-05-04 18:48 38.74581 -90.36805 551 ft 2 kts 212°
2026-05-04 18:49 38.74594 -90.36793 551 ft 2 kts 221°
2026-05-04 18:49 38.74605 -90.36777 558 ft 2 kts 242°
2026-05-04 18:49 38.74608 -90.36757 561 ft 2 kts 283°
2026-05-04 18:49 38.74604 -90.36747 561 ft 0 kts 298°
2026-05-04 18:50 38.74605 -90.36747 561 ft 0 kts 298°
2026-05-04 18:52 38.74611 -90.36761 560 ft 4 kts 299°
2026-05-04 18:52 38.74633 -90.36811 558 ft 8 kts 303°
2026-05-04 18:52 38.74667 -90.36877 556 ft 10 kts 303°
2026-05-04 18:53 38.74705 -90.36954 559 ft 11 kts 302°
2026-05-04 18:53 38.74746 -90.37037 558 ft 12 kts 302°
2026-05-04 18:53 38.74795 -90.37136 553 ft 15 kts 302°
2026-05-04 18:53 38.74853 -90.37255 558 ft 16 kts 301°
2026-05-04 18:54 38.74893 -90.37384 556 ft 16 kts 302°
2026-05-04 18:54 38.74959 -90.37520 555 ft 20 kts 302°
2026-05-04 18:54 38.75030 -90.37665 551 ft 21 kts 302°
2026-05-04 18:54 38.75100 -90.37806 545 ft 17 kts 302°
2026-05-04 18:55 38.75169 -90.37945 546 ft 19 kts 302°
2026-05-04 18:55 38.75327 -90.37952 544 ft 14 kts 32°
2026-05-04 18:55 38.75369 -90.37876 543 ft 10 kts 104°
2026-05-04 18:56 38.75335 -90.37803 544 ft 10 kts 122°
2026-05-04 18:56 38.75236 -90.37603 544 ft 62 kts 122°
2026-05-04 18:56 38.74861 -90.36840 558 ft 139 kts 121°
2026-05-04 18:56 38.74321 -90.35661 1188 ft 158 kts 125°
2026-05-04 18:57 38.73749 -90.34364 2022 ft 178 kts 126°
2026-05-04 18:57 38.73350 -90.32808 2440 ft 195 kts 108°
2026-05-04 18:57 38.73187 -90.31001 3083 ft 212 kts 102°
2026-05-04 18:57 38.73033 -90.29013 3560 ft 239 kts 103°
2026-05-04 18:58 38.72940 -90.26759 3980 ft 271 kts 88°
2026-05-04 18:58 38.73618 -90.24366 4407 ft 303 kts 56°
2026-05-04 18:58 38.74992 -90.22296 5251 ft 309 kts 39°
2026-05-04 18:58 38.76876 -90.21068 6117 ft 303 kts
2026-05-04 18:59 38.78920 -90.20975 7008 ft 294 kts 352°
2026-05-04 18:59 38.80976 -90.21071 7847 ft 297 kts 352°
2026-05-04 18:59 38.83058 -90.21194 8639 ft 299 kts 348°
2026-05-04 18:59 38.85009 -90.21954 9355 ft 291 kts 328°
2026-05-04 19:00 38.86801 -90.23166 10039 ft 290 kts 324°
2026-05-04 19:00 38.88573 -90.24403 10714 ft 290 kts 326°
2026-05-04 19:00 38.90370 -90.25584 11511 ft 288 kts 326°
2026-05-04 19:00 38.92161 -90.26738 12349 ft 286 kts 326°
2026-05-04 19:01 38.93940 -90.27874 13173 ft 285 kts 327°
2026-05-04 19:01 38.95704 -90.28984 13948 ft 286 kts 327°
2026-05-04 19:01 38.97482 -90.30140 14677 ft 288 kts 326°
2026-05-04 19:01 38.99295 -90.31284 15433 ft 292 kts 327°
2026-05-04 19:02 39.01128 -90.32424 16216 ft 294 kts 327°
2026-05-04 19:02 39.02982 -90.33592 16981 ft 297 kts 326°
2026-05-04 19:02 39.04827 -90.34822 17773 ft 301 kts 326°
2026-05-04 19:02 39.06699 -90.36054 18491 ft 304 kts 326°
2026-05-04 19:03 39.08607 -90.37273 19115 ft 307 kts 326°
2026-05-04 19:03 39.10537 -90.38504 19759 ft 311 kts 326°
2026-05-04 19:03 39.12483 -90.39753 20413 ft 314 kts 326°
2026-05-04 19:03 39.14453 -90.41024 21012 ft 318 kts 326°
2026-05-04 19:04 39.16450 -90.42314 21595 ft 322 kts 326°
2026-05-04 19:04 39.18464 -90.43618 22175 ft 326 kts 326°
2026-05-04 19:04 39.20481 -90.44925 22745 ft 330 kts 326°
2026-05-04 19:04 39.22549 -90.46270 23304 ft 334 kts 326°
2026-05-04 19:05 39.24631 -90.47623 23831 ft 336 kts 326°
2026-05-04 19:05 39.26726 -90.48987 24390 ft 338 kts 326°
2026-05-04 19:05 39.28835 -90.50363 24953 ft 341 kts 327°
2026-05-04 19:05 39.30958 -90.51749 25506 ft 343 kts 327°
2026-05-04 19:06 39.33096 -90.53148 26032 ft 346 kts 327°
2026-05-04 19:06 39.35251 -90.54561 26549 ft 348 kts 328°
2026-05-04 19:06 39.37530 -90.55740 26920 ft 360 kts 339°
2026-05-04 19:06 39.39980 -90.56492 27365 ft 365 kts 344°
2026-05-04 19:07 39.42535 -90.56803 27804 ft 374 kts 355°
2026-05-04 19:07 39.45151 -90.56383 28257 ft 385 kts
2026-05-04 19:07 39.47695 -90.55202 28778 ft 390 kts 18°
2026-05-04 19:07 39.50165 -90.53771 29421 ft 388 kts 19°
2026-05-04 19:08 39.52614 -90.52322 29989 ft 386 kts 19°
2026-05-04 19:08 39.55057 -90.50871 30444 ft 385 kts 19°
2026-05-04 19:08 39.57486 -90.49424 30904 ft 385 kts 19°
2026-05-04 19:08 39.59924 -90.47964 30886 ft 397 kts 20°
2026-05-04 19:09 39.62463 -90.46411 30908 ft 408 kts 20°
2026-05-04 19:09 39.65070 -90.44813 30824 ft 420 kts 21°
2026-05-04 19:09 39.67719 -90.43173 30682 ft 421 kts 21°
2026-05-04 19:09 39.70383 -90.41533 30710 ft 424 kts 21°
2026-05-04 19:10 39.75737 -90.38254 30731 ft 426 kts 21°
2026-05-04 19:10 39.81111 -90.34956 30738 ft 427 kts 21°
2026-05-04 19:11 39.86481 -90.31655 30707 ft 426 kts 21°
2026-05-04 19:11 39.91811 -90.28374 30725 ft 427 kts 21°
2026-05-04 19:12 39.99329 -90.22096 30723 ft 435 kts 37°
2026-05-04 19:13 40.03895 -90.16924 30697 ft 434 kts 37°
2026-05-04 19:13 40.08452 -90.11793 30675 ft 432 kts 37°
2026-05-04 19:14 40.13018 -90.06662 30676 ft 433 kts 37°
2026-05-04 19:14 40.17582 -90.01527 30677 ft 433 kts 37°
2026-05-04 19:15 40.22123 -89.96413 30680 ft 435 kts 37°
2026-05-04 19:15 40.26709 -89.91250 30673 ft 432 kts 38°
2026-05-04 19:16 40.31241 -89.86112 30681 ft 432 kts 37°
2026-05-04 19:16 40.35805 -89.80935 30682 ft 432 kts 38°
2026-05-04 19:17 40.40341 -89.75763 30668 ft 432 kts 38°
2026-05-04 19:17 40.44879 -89.70591 30676 ft 432 kts 38°
2026-05-04 19:18 40.49391 -89.65435 30666 ft 431 kts 38°
2026-05-04 19:18 40.53905 -89.60267 30678 ft 431 kts 38°
2026-05-04 19:19 40.58419 -89.55085 30314 ft 428 kts 38°
2026-05-04 19:19 40.60637 -89.52535 30068 ft 420 kts 38°
2026-05-04 19:19 40.62848 -89.49998 29392 ft 423 kts 38°
2026-05-04 19:19 40.65062 -89.47452 28853 ft 421 kts 38°
2026-05-04 19:20 40.67273 -89.44905 28284 ft 422 kts 38°
2026-05-04 19:20 40.69365 -89.42491 27728 ft 425 kts 39°
2026-05-04 19:21 40.69581 -89.42242 27671 ft 425 kts 38°
2026-05-04 19:22 40.71058 -89.40534 27311 ft 425 kts 38°
2026-05-04 19:22 40.73277 -89.37967 26740 ft 423 kts 38°
2026-05-04 19:22 40.75474 -89.35402 26185 ft 420 kts 39°
2026-05-04 19:22 40.77633 -89.32814 25636 ft 417 kts 39°
2026-05-04 19:23 40.79768 -89.30245 25096 ft 413 kts 39°
2026-05-04 19:23 40.81893 -89.27707 24559 ft 410 kts 39°
2026-05-04 19:23 40.84008 -89.25183 24019 ft 408 kts 39°
2026-05-04 19:23 40.86105 -89.22678 23489 ft 406 kts 39°
2026-05-04 19:24 40.88197 -89.20178 22928 ft 404 kts 39°
2026-05-04 19:24 40.90266 -89.17699 22439 ft 400 kts 39°
2026-05-04 19:24 40.92306 -89.15258 21884 ft 400 kts 39°
2026-05-04 19:24 40.94360 -89.12798 21401 ft 398 kts 39°
2026-05-04 19:25 40.96414 -89.10337 20867 ft 397 kts 39°
2026-05-04 19:25 40.98461 -89.07880 20347 ft 395 kts 38°
2026-05-04 19:25 41.00493 -89.05438 19831 ft 393 kts 38°
2026-05-04 19:25 41.02515 -89.03007 19323 ft 391 kts 38°
2026-05-04 19:26 41.04507 -89.00611 18986 ft 387 kts 38°
2026-05-04 19:26 41.06493 -88.98218 18766 ft 391 kts 38°
2026-05-04 19:26 41.08517 -88.95782 18185 ft 393 kts 38°
2026-05-04 19:26 41.10534 -88.93347 17632 ft 389 kts 38°
2026-05-04 19:27 41.12521 -88.90944 17168 ft 384 kts 38°
2026-05-04 19:27 41.14489 -88.88565 16647 ft 382 kts 38°
2026-05-04 19:27 41.16447 -88.86197 16166 ft 379 kts 38°
2026-05-04 19:27 41.18397 -88.83838 15657 ft 378 kts 38°
2026-05-04 19:28 41.20337 -88.81489 15168 ft 376 kts 38°
2026-05-04 19:28 41.22261 -88.79154 14680 ft 371 kts 38°
2026-05-04 19:28 41.24132 -88.76875 14205 ft 357 kts 38°
2026-05-04 19:28 41.25929 -88.74692 13762 ft 344 kts 37°
2026-05-04 19:29 41.27661 -88.72588 13337 ft 341 kts 37°
2026-05-04 19:29 41.29409 -88.70467 12898 ft 338 kts 37°
2026-05-04 19:29 41.31137 -88.68368 12469 ft 335 kts 38°
2026-05-04 19:29 41.32851 -88.66280 12057 ft 332 kts 38°
2026-05-04 19:30 41.34546 -88.64218 11633 ft 330 kts 38°
2026-05-04 19:30 41.36234 -88.62162 11238 ft 327 kts 38°
2026-05-04 19:30 41.37889 -88.60146 11090 ft 318 kts 38°
2026-05-04 19:30 41.39540 -88.58188 11008 ft 317 kts 37°
2026-05-04 19:31 41.41207 -88.56224 11034 ft 322 kts 37°
2026-05-04 19:31 41.42890 -88.54236 11004 ft 325 kts 37°
2026-05-04 19:31 41.44577 -88.52234 11012 ft 324 kts 37°
2026-05-04 19:31 41.46264 -88.50229 11012 ft 325 kts 37°
2026-05-04 19:32 41.47957 -88.48217 11008 ft 326 kts 37°
2026-05-04 19:32 41.49653 -88.46198 11015 ft 327 kts 37°
2026-05-04 19:32 41.51354 -88.44169 11014 ft 328 kts 37°
2026-05-04 19:32 41.53055 -88.42141 11014 ft 327 kts 37°
2026-05-04 19:33 41.54750 -88.40117 11015 ft 327 kts 38°
2026-05-04 19:33 41.56448 -88.38091 11001 ft 328 kts 37°
2026-05-04 19:33 41.58141 -88.36066 11008 ft 327 kts 37°
2026-05-04 19:33 41.59817 -88.34061 11008 ft 327 kts 37°
2026-05-04 19:34 41.61515 -88.32028 11021 ft 328 kts 37°
2026-05-04 19:34 41.63217 -88.29997 11029 ft 328 kts 37°
2026-05-04 19:34 41.64921 -88.27975 11022 ft 328 kts 37°
2026-05-04 19:34 41.66628 -88.25946 11024 ft 327 kts 37°
2026-05-04 19:35 41.68329 -88.23924 11024 ft 328 kts 37°
2026-05-04 19:35 41.70035 -88.21892 11016 ft 328 kts 37°
2026-05-04 19:35 41.71736 -88.19862 11010 ft 327 kts 37°
2026-05-04 19:35 41.73435 -88.17835 11006 ft 327 kts 37°
2026-05-04 19:36 41.75136 -88.15805 11008 ft 328 kts 37°
2026-05-04 19:36 41.76833 -88.13776 11006 ft 326 kts 37°
2026-05-04 19:36 41.78521 -88.11755 11022 ft 324 kts 37°
2026-05-04 19:36 41.80182 -88.09768 11015 ft 325 kts 37°
2026-05-04 19:37 41.81876 -88.07688 11004 ft 328 kts 40°
2026-05-04 19:37 41.83470 -88.05550 10999 ft 329 kts 41°
2026-05-04 19:37 41.85082 -88.03365 11014 ft 329 kts 41°
2026-05-04 19:37 41.86695 -88.01185 11009 ft 330 kts 43°
2026-05-04 19:38 41.88046 -87.98656 10679 ft 340 kts 63°
2026-05-04 19:38 41.88589 -87.95609 10298 ft 336 kts 88°
2026-05-04 19:38 41.88571 -87.92509 9945 ft 329 kts 94°
2026-05-04 19:38 41.88476 -87.89480 9403 ft 321 kts 94°
2026-05-04 19:39 41.88422 -87.86515 8775 ft 313 kts 92°
2026-05-04 19:39 41.88417 -87.83630 8156 ft 304 kts 91°
2026-05-04 19:39 41.88424 -87.80830 7554 ft 296 kts 91°
2026-05-04 19:39 41.88425 -87.78098 6956 ft 290 kts 91°
2026-05-04 19:40 41.88426 -87.75427 6370 ft 283 kts 91°
2026-05-04 19:40 41.88434 -87.72813 5781 ft 278 kts 91°
2026-05-04 19:40 41.88446 -87.71097 5377 ft 275 kts 91°
2026-05-04 19:41 41.88463 -87.69538 5042 ft 277 kts 91°
2026-05-04 19:42 41.88502 -87.67093 5063 ft 257 kts 91°
2026-05-04 19:42 41.88538 -87.64663 5107 ft 263 kts 91°
2026-05-04 19:42 41.88584 -87.62200 5112 ft 264 kts 91°
2026-05-04 19:42 41.88703 -87.59755 5088 ft 261 kts 78°
2026-05-04 19:43 41.89505 -87.57685 5039 ft 243 kts 43°
2026-05-04 19:43 41.90876 -87.56638 4941 ft 218 kts
2026-05-04 19:43 41.92324 -87.56353 4802 ft 206 kts
2026-05-04 19:43 41.93703 -87.56060 4738 ft 198 kts
2026-05-04 19:44 41.95049 -87.55771 4694 ft 192 kts
2026-05-04 19:44 41.96348 -87.55568 4566 ft 183 kts 354°
2026-05-04 19:44 41.97493 -87.56052 4208 ft 168 kts 308°
2026-05-04 19:44 41.97981 -87.57316 4060 ft 145 kts 279°
2026-05-04 19:45 41.98340 -87.58549 4008 ft 136 kts 291°
2026-05-04 19:45 41.98792 -87.59734 4225 ft 150 kts 275°
2026-05-04 19:45 41.98787 -87.61149 4330 ft 159 kts 261°
2026-05-04 19:45 41.98762 -87.62667 4420 ft 164 kts 268°
2026-05-04 19:46 41.98805 -87.64161 4228 ft 157 kts 266°
2026-05-04 19:46 41.98798 -87.65639 4021 ft 161 kts 265°
2026-05-04 19:46 41.98798 -87.67135 3813 ft 155 kts 266°
2026-05-04 19:46 41.98806 -87.68520 3595 ft 142 kts 266°
2026-05-04 19:47 41.98808 -87.69821 3406 ft 137 kts 265°
2026-05-04 19:47 41.98810 -87.71112 3217 ft 138 kts 268°
2026-05-04 19:47 41.98814 -87.72389 3045 ft 137 kts 265°
2026-05-04 19:47 41.98809 -87.73677 2870 ft 139 kts 265°
2026-05-04 19:48 41.98818 -87.74956 2689 ft 136 kts 265°
2026-05-04 19:48 41.98819 -87.76258 2520 ft 143 kts 265°
2026-05-04 19:48 41.98819 -87.77592 2336 ft 145 kts 266°
2026-05-04 19:48 41.98824 -87.78946 2133 ft 143 kts 267°
2026-05-04 19:49 41.98827 -87.80267 1942 ft 140 kts 267°
2026-05-04 19:49 41.98830 -87.81562 1776 ft 136 kts 268°
2026-05-04 19:49 41.98830 -87.82782 1565 ft 127 kts 264°
2026-05-04 19:49 41.98818 -87.83951 1422 ft 128 kts 266°
2026-05-04 19:50 41.98833 -87.85196 1265 ft 135 kts 267°
2026-05-04 19:50 41.98838 -87.86465 1077 ft 135 kts 267°
2026-05-04 19:50 41.98833 -87.87682 857 ft 130 kts 266°
2026-05-04 19:50 41.98831 -87.88851 698 ft 124 kts 269°
2026-05-04 19:51 41.98830 -87.89949 666 ft 104 kts 269°
2026-05-04 19:51 41.98832 -87.90712 668 ft 62 kts 270°
2026-05-04 19:51 41.98831 -87.91199 666 ft 43 kts 269°
2026-05-04 19:51 41.98786 -87.91486 666 ft 16 kts 237°
2026-05-04 19:52 41.98749 -87.91564 667 ft 12 kts 238°
2026-05-04 19:52 41.98742 -87.91578 667 ft 12 kts 238°